Voltar ao catálogo

ATLAS 5 CENTAUR DEB

AtivoHEO
NORAD 44690·DEBRIS·🇺🇸 United States

Lançado Oct 17, 2018 de Cape Canaveral Space Force Station

Loading…

Próximas Passagens (próximas 24 horas)

TLE

AtualizadoSource: Space-Track

Época: Sep 12, 2026, 22:16 UTC

1 44690U 18079BC  26255.92844284 -.00000167  00000-0  00000-0 0  9994
2 44690  13.1371  29.0139 4401461 335.4590   8.6644  1.88480858 48756

Acompanhe ATLAS 5 CENTAUR DEB em tempo real com AllMySat

Download on the App Store